C/2016 Q2 ( PanSTARRS )

Japanese version
Home page
Updated on November 14, 2016

---------------------------------------------------------------------

* Profile

Discovery Date August 26, 2016
Magnitude 21.6 mag
Discoverer Pan-STARRS 1 telescope (Haleakala)

* Pictures

* Orbital Elements

Epoch 2021 May 26.0 TT = JDT 2459360.5
T 2021 May 30.07304 TT                                  MPCW
q   7.1992805            (2000.0)            P               Q
z  +0.0025651      Peri.   83.99625     -0.12122977     -0.80835118
 +/-0.0011266      Node   322.30132     -0.67352218     +0.49330812
e   0.9815332      Incl.  109.59816     +0.72915788     +0.32127163
From 36 observations 2016 Aug. 26-Oct. 29, mean residual 0".7.

* Finding Charts

* Magnitudes Graph

        m1 = 4.0 + 5 log d + 10.0 log r

---------------------------------------------------------------------

The orbital elements are published on M.P.E.C. 2016-V116.
The charts are made with StellaNavigator Ver.10 (AstroArts).
The magnitudes graphs are made with Comet for Windows.

---------------------------------------------------------------------

Copyright(C) Seiichi Yoshida (comet@aerith.net). All rights reserved.